BON112 FACT-FALA

Flight info

Callsign BON112
Flight time 1h 36m
Altitude 37000
Route KODES UQ42 OKLOK UQ52 EGPOP DCT LIV
Aircraft A320/M-SDE3FGHIRWY/LB1

Departure

Time 2026-05-06 16:51
Airport Cape Town International Airport (FACT)

Arrival

Time 2026-05-06 18:27
Airport Lanseria International Airport (FALA)
Time Latitude Longitude Altitude Speed Heading
2026-05-06 16:36 -33.97074 18.59859 154 ft 0 kts 255°
2026-05-06 16:40 -33.97071 18.59873 154 ft 3 kts 255°
2026-05-06 16:40 -33.97068 18.59886 154 ft 3 kts 255°
2026-05-06 16:41 -33.97063 18.59907 154 ft 3 kts 255°
2026-05-06 16:41 -33.97060 18.59927 154 ft 2 kts 285°
2026-05-06 16:41 -33.97068 18.59945 154 ft 2 kts 326°
2026-05-06 16:41 -33.97078 18.59952 154 ft 0 kts 334°
2026-05-06 16:44 -33.97076 18.59951 154 ft 1 kts 334°
2026-05-06 16:45 -33.97056 18.59943 154 ft 9 kts 345°
2026-05-06 16:45 -33.96972 18.59920 154 ft 14 kts 347°
2026-05-06 16:45 -33.96874 18.59892 154 ft 15 kts 345°
2026-05-06 16:45 -33.96767 18.59858 154 ft 17 kts 345°
2026-05-06 16:46 -33.96650 18.59820 154 ft 18 kts 345°
2026-05-06 16:46 -33.96528 18.59782 154 ft 19 kts 345°
2026-05-06 16:46 -33.96391 18.59752 154 ft 20 kts 352°
2026-05-06 16:46 -33.96281 18.59731 154 ft 13 kts 351°
2026-05-06 16:47 -33.96188 18.59756 153 ft 15 kts 36°
2026-05-06 16:47 -33.96124 18.59845 153 ft 13 kts 52°
2026-05-06 16:47 -33.96068 18.59916 154 ft 11 kts 44°
2026-05-06 16:47 -33.96014 18.59989 154 ft 12 kts 67°
2026-05-06 16:48 -33.96032 18.60025 154 ft 0 kts 163°
2026-05-06 16:49 -33.96033 18.60026 154 ft 1 kts 163°
2026-05-06 16:50 -33.96075 18.60040 154 ft 26 kts 165°
2026-05-06 16:50 -33.96482 18.60165 157 ft 93 kts 165°
2026-05-06 16:50 -33.97287 18.60416 153 ft 144 kts 166°
2026-05-06 16:50 -33.98346 18.60731 486 ft 158 kts 166°
2026-05-06 16:51 -33.99403 18.61057 1180 ft 155 kts 166°
2026-05-06 16:51 -34.00452 18.61385 1804 ft 156 kts 165°
2026-05-06 16:51 -34.01517 18.61586 2332 ft 158 kts 184°
2026-05-06 16:51 -34.02592 18.61034 2567 ft 183 kts 215°
2026-05-06 16:52 -34.03448 18.59804 2776 ft 209 kts 245°
2026-05-06 16:52 -34.03656 18.57959 3029 ft 237 kts 270°
2026-05-06 16:52 -34.03394 18.55926 3377 ft 262 kts 290°
2026-05-06 16:52 -34.02315 18.54107 4017 ft 276 kts 322°
2026-05-06 16:53 -34.00561 18.53181 4827 ft 280 kts 355°
2026-05-06 16:53 -33.98630 18.53399 5628 ft 281 kts 14°
2026-05-06 16:53 -33.96708 18.53905 6431 ft 285 kts 15°
2026-05-06 16:53 -33.94750 18.54442 7207 ft 291 kts 15°
2026-05-06 16:54 -33.92757 18.54992 7992 ft 296 kts 15°
2026-05-06 16:54 -33.90715 18.55547 8728 ft 302 kts 15°
2026-05-06 16:54 -33.88690 18.56240 9425 ft 304 kts 29°
2026-05-06 16:54 -33.86987 18.57651 10082 ft 302 kts 48°
2026-05-06 16:55 -33.85451 18.59445 10525 ft 317 kts 49°
2026-05-06 16:55 -33.83826 18.61374 10701 ft 340 kts 48°
2026-05-06 16:55 -33.82096 18.63434 10982 ft 357 kts 48°
2026-05-06 16:55 -33.80311 18.65546 11557 ft 363 kts 47°
2026-05-06 16:56 -33.78487 18.67690 12173 ft 369 kts 47°
2026-05-06 16:56 -33.76639 18.69862 12797 ft 373 kts 47°
2026-05-06 16:56 -33.74773 18.72054 13427 ft 376 kts 47°
2026-05-06 16:56 -33.72891 18.74258 14048 ft 379 kts 47°
2026-05-06 16:57 -33.70992 18.76479 14669 ft 382 kts 47°
2026-05-06 16:57 -33.69079 18.78721 15249 ft 386 kts 47°
2026-05-06 16:57 -33.67151 18.80980 15817 ft 389 kts 48°
2026-05-06 16:57 -33.65205 18.83256 16389 ft 392 kts 48°
2026-05-06 16:58 -33.63236 18.85557 16950 ft 396 kts 48°
2026-05-06 16:58 -33.61254 18.87876 17522 ft 399 kts 48°
2026-05-06 16:58 -33.59259 18.90213 18088 ft 402 kts 48°
2026-05-06 16:58 -33.57276 18.92532 18630 ft 406 kts 48°
2026-05-06 16:59 -33.55244 18.94901 19173 ft 409 kts 48°
2026-05-06 16:59 -33.53185 18.97298 19706 ft 413 kts 47°
2026-05-06 16:59 -33.51114 18.99703 20245 ft 417 kts 47°
2026-05-06 16:59 -33.49021 19.02134 20761 ft 421 kts 47°
2026-05-06 17:00 -33.46905 19.04591 21262 ft 424 kts 47°
2026-05-06 17:00 -33.44780 19.07060 21744 ft 428 kts 47°
2026-05-06 17:00 -33.42632 19.09555 22221 ft 431 kts 47°
2026-05-06 17:00 -33.40475 19.12056 22662 ft 434 kts 46°
2026-05-06 17:01 -33.38283 19.14573 23073 ft 438 kts 46°
2026-05-06 17:01 -33.36100 19.17064 23506 ft 440 kts 46°
2026-05-06 17:01 -33.33872 19.19601 23905 ft 444 kts 45°
2026-05-06 17:01 -33.31630 19.22152 24312 ft 447 kts 45°
2026-05-06 17:02 -33.29368 19.24726 24737 ft 449 kts 46°
2026-05-06 17:02 -33.27103 19.27302 25158 ft 450 kts 46°
2026-05-06 17:02 -33.24833 19.29886 25576 ft 451 kts 46°
2026-05-06 17:02 -33.22555 19.32473 26000 ft 452 kts 46°
2026-05-06 17:03 -33.20273 19.35065 26394 ft 454 kts 46°
2026-05-06 17:03 -33.17983 19.37665 26838 ft 455 kts 46°
2026-05-06 17:03 -33.15682 19.40272 27254 ft 456 kts 46°
2026-05-06 17:03 -33.13380 19.42872 27649 ft 456 kts 46°
2026-05-06 17:04 -33.11077 19.45479 28019 ft 457 kts 46°
2026-05-06 17:04 -33.08775 19.48092 28383 ft 457 kts 46°
2026-05-06 17:04 -33.06467 19.50705 28735 ft 458 kts 46°
2026-05-06 17:04 -33.04184 19.53282 29040 ft 459 kts 46°
2026-05-06 17:05 -33.01856 19.55911 29425 ft 458 kts 46°
2026-05-06 17:05 -32.99548 19.58518 29871 ft 456 kts 47°
2026-05-06 17:05 -32.97248 19.61111 30346 ft 454 kts 47°
2026-05-06 17:05 -32.94963 19.63688 30820 ft 451 kts 47°
2026-05-06 17:06 -32.92694 19.66245 31275 ft 449 kts 47°
2026-05-06 17:06 -32.90429 19.68797 31718 ft 447 kts 47°
2026-05-06 17:06 -32.88173 19.71336 32164 ft 446 kts 47°
2026-05-06 17:06 -32.85927 19.73866 32597 ft 444 kts 47°
2026-05-06 17:07 -32.83678 19.76395 33016 ft 442 kts 47°
2026-05-06 17:07 -32.81438 19.78904 33428 ft 441 kts 47°
2026-05-06 17:07 -32.79209 19.81397 33827 ft 439 kts 47°
2026-05-06 17:07 -32.77014 19.83854 34217 ft 438 kts 48°
2026-05-06 17:08 -32.74802 19.86334 34547 ft 437 kts 48°
2026-05-06 17:08 -32.72585 19.88822 34779 ft 439 kts 47°
2026-05-06 17:08 -32.70355 19.91322 34970 ft 442 kts 47°
2026-05-06 17:09 -32.65827 19.96395 35097 ft 453 kts 47°
2026-05-06 17:09 -32.61194 20.01573 35082 ft 460 kts 47°
2026-05-06 17:10 -32.56500 20.06802 35094 ft 463 kts 47°
2026-05-06 17:10 -32.51824 20.12005 35098 ft 464 kts 47°
2026-05-06 17:11 -32.47109 20.17240 35091 ft 464 kts 47°
2026-05-06 17:11 -32.42377 20.22483 35094 ft 465 kts 47°
2026-05-06 17:12 -32.37680 20.27690 35096 ft 465 kts 47°
2026-05-06 17:12 -32.32954 20.32935 35097 ft 466 kts 47°
2026-05-06 17:13 -32.28203 20.38178 35098 ft 466 kts 47°
2026-05-06 17:13 -32.23458 20.43403 35099 ft 466 kts 47°
2026-05-06 17:14 -32.18738 20.48599 35099 ft 467 kts 47°
2026-05-06 17:14 -32.13986 20.53825 35098 ft 467 kts 47°
2026-05-06 17:15 -32.09229 20.59060 35099 ft 467 kts 47°
2026-05-06 17:15 -32.04461 20.64292 35099 ft 468 kts 47°
2026-05-06 17:16 -31.99689 20.69507 35096 ft 468 kts 46°
2026-05-06 17:16 -31.94908 20.74729 35074 ft 470 kts 46°
2026-05-06 17:17 -31.90095 20.79980 35062 ft 473 kts 45°
2026-05-06 17:17 -31.85282 20.85225 35056 ft 475 kts 45°
2026-05-06 17:18 -31.80418 20.90535 35061 ft 478 kts 45°
2026-05-06 17:18 -31.75521 20.95861 35066 ft 480 kts 45°
2026-05-06 17:19 -31.70603 21.01182 35064 ft 481 kts 45°
2026-05-06 17:19 -31.65699 21.06486 35067 ft 483 kts 45°
2026-05-06 17:20 -31.60750 21.11845 35077 ft 484 kts 45°
2026-05-06 17:20 -31.55842 21.17270 35067 ft 484 kts 49°
2026-05-06 17:21 -31.51286 21.23084 35076 ft 485 kts 50°
2026-05-06 17:21 -31.46781 21.29016 35077 ft 486 kts 51°
2026-05-06 17:22 -31.42292 21.34906 35071 ft 487 kts 50°
2026-05-06 17:22 -31.37754 21.40796 35065 ft 488 kts 50°
2026-05-06 17:23 -31.33187 21.46699 35063 ft 489 kts 50°
2026-05-06 17:23 -31.28617 21.52605 35059 ft 490 kts 50°
2026-05-06 17:24 -31.24039 21.58515 35065 ft 491 kts 50°
2026-05-06 17:24 -31.20232 21.63423 35062 ft 491 kts 49°
2026-05-06 17:25 -31.14883 21.70303 35057 ft 492 kts 49°
2026-05-06 17:25 -31.11053 21.75224 35059 ft 492 kts 49°
2026-05-06 17:26 -31.06433 21.81152 35056 ft 493 kts 49°
2026-05-06 17:26 -31.01802 21.87072 35058 ft 494 kts 49°
2026-05-06 17:27 -30.97178 21.93002 35056 ft 495 kts 49°
2026-05-06 17:27 -30.92532 21.98946 35059 ft 496 kts 49°
2026-05-06 17:28 -30.87871 22.04887 35058 ft 497 kts 48°
2026-05-06 17:28 -30.83226 22.10792 35047 ft 498 kts 48°
2026-05-06 17:29 -30.78544 22.16743 35051 ft 499 kts 47°
2026-05-06 17:29 -30.73831 22.22704 35051 ft 500 kts 47°
2026-05-06 17:30 -30.69105 22.28664 35056 ft 501 kts 47°
2026-05-06 17:30 -30.64384 22.34627 35060 ft 502 kts 47°
2026-05-06 17:31 -30.59685 22.40558 35061 ft 502 kts 47°
2026-05-06 17:31 -30.54940 22.46531 35058 ft 503 kts 47°
2026-05-06 17:32 -30.50189 22.52506 35045 ft 503 kts 47°
2026-05-06 17:32 -30.45438 22.58469 35032 ft 503 kts 47°
2026-05-06 17:33 -30.40679 22.64427 35026 ft 504 kts 47°
2026-05-06 17:33 -30.35917 22.70397 35022 ft 504 kts 47°
2026-05-06 17:34 -30.31172 22.76325 35023 ft 504 kts 46°
2026-05-06 17:34 -30.26399 22.82272 35025 ft 504 kts 46°
2026-05-06 17:35 -30.21624 22.88203 35027 ft 504 kts 46°
2026-05-06 17:35 -30.16853 22.94131 35030 ft 504 kts 46°
2026-05-06 17:36 -30.09694 23.03033 35032 ft 504 kts 46°
2026-05-06 17:36 -30.04918 23.08951 35030 ft 503 kts 46°
2026-05-06 17:37 -30.00130 23.14852 35026 ft 503 kts 46°
2026-05-06 17:37 -29.95369 23.20729 35018 ft 504 kts 45°
2026-05-06 17:38 -29.90573 23.26647 35004 ft 505 kts 45°
2026-05-06 17:38 -29.85764 23.32583 35004 ft 506 kts 45°
2026-05-06 17:39 -29.80933 23.38516 35015 ft 507 kts 44°
2026-05-06 17:39 -29.76135 23.44389 35011 ft 507 kts 44°
2026-05-06 17:40 -29.71298 23.50318 35017 ft 507 kts 44°
2026-05-06 17:40 -29.66466 23.56230 35015 ft 507 kts 44°
2026-05-06 17:41 -29.61631 23.62141 35020 ft 507 kts 44°
2026-05-06 17:41 -29.56791 23.68060 35020 ft 507 kts 44°
2026-05-06 17:42 -29.51945 23.73968 35019 ft 507 kts 44°
2026-05-06 17:42 -29.47097 23.79865 35021 ft 507 kts 44°
2026-05-06 17:43 -29.42281 23.85710 35022 ft 507 kts 44°
2026-05-06 17:43 -29.37430 23.91583 35021 ft 507 kts 44°
2026-05-06 17:44 -29.32566 23.97465 35022 ft 507 kts 44°
2026-05-06 17:44 -29.27717 24.03337 35025 ft 507 kts 43°
2026-05-06 17:45 -29.22867 24.09200 35028 ft 506 kts 43°
2026-05-06 17:45 -29.18043 24.15009 35029 ft 506 kts 42°
2026-05-06 17:46 -29.13189 24.20852 35025 ft 505 kts 42°
2026-05-06 17:46 -29.08337 24.26684 35022 ft 505 kts 42°
2026-05-06 17:47 -29.03507 24.32466 35024 ft 504 kts 41°
2026-05-06 17:47 -28.98586 24.38192 35022 ft 504 kts 40°
2026-05-06 17:48 -28.93652 24.43874 35024 ft 504 kts 40°
2026-05-06 17:48 -28.88722 24.49567 35017 ft 503 kts 40°
2026-05-06 17:49 -28.83807 24.55255 35018 ft 503 kts 40°
2026-05-06 17:49 -28.78889 24.60937 35016 ft 503 kts 40°
2026-05-06 17:50 -28.74001 24.66580 35014 ft 503 kts 39°
2026-05-06 17:50 -28.69088 24.72252 35015 ft 503 kts 39°
2026-05-06 17:51 -28.64165 24.77910 35012 ft 502 kts 39°
2026-05-06 17:51 -28.59223 24.83568 35015 ft 502 kts 39°
2026-05-06 17:52 -28.54330 24.89175 35017 ft 502 kts 39°
2026-05-06 17:52 -28.49407 24.94824 35016 ft 502 kts 39°
2026-05-06 17:53 -28.44492 25.00460 35022 ft 501 kts 38°
2026-05-06 17:53 -28.39560 25.06088 35018 ft 501 kts 38°
2026-05-06 17:54 -28.34672 25.11654 35020 ft 500 kts 38°
2026-05-06 17:54 -28.29757 25.17255 35017 ft 500 kts 38°
2026-05-06 17:55 -28.24837 25.22854 35021 ft 500 kts 37°
2026-05-06 17:55 -28.19931 25.28421 35021 ft 499 kts 37°
2026-05-06 17:56 -28.15056 25.33951 35024 ft 498 kts 37°
2026-05-06 17:56 -28.10157 25.39502 35028 ft 497 kts 37°
2026-05-06 17:57 -28.05253 25.45050 35028 ft 497 kts 37°
2026-05-06 17:57 -28.00362 25.50580 35028 ft 497 kts 36°
2026-05-06 17:58 -27.95471 25.56100 35032 ft 496 kts 36°
2026-05-06 17:58 -27.90614 25.61571 35035 ft 496 kts 36°
2026-05-06 17:59 -27.85715 25.67084 35037 ft 496 kts 36°
2026-05-06 17:59 -27.80828 25.72572 35039 ft 495 kts 36°
2026-05-06 18:00 -27.75932 25.78069 35040 ft 495 kts 36°
2026-05-06 18:00 -27.71062 25.83529 35040 ft 495 kts 36°
2026-05-06 18:01 -27.66169 25.89005 35044 ft 495 kts 36°
2026-05-06 18:01 -27.61258 25.94484 35047 ft 495 kts 36°
2026-05-06 18:02 -27.56359 25.99951 35051 ft 495 kts 36°
2026-05-06 18:02 -27.51460 26.05426 35064 ft 495 kts 35°
2026-05-06 18:03 -27.46601 26.10843 35064 ft 494 kts 35°
2026-05-06 18:03 -27.41699 26.16292 35061 ft 494 kts 36°
2026-05-06 18:04 -27.36804 26.21739 35063 ft 495 kts 36°
2026-05-06 18:04 -27.31938 26.27144 35064 ft 495 kts 36°
2026-05-06 18:05 -27.27022 26.32578 35067 ft 495 kts 36°
2026-05-06 18:05 -27.22100 26.38020 35067 ft 495 kts 36°
2026-05-06 18:06 -27.17187 26.43460 35087 ft 495 kts 36°
2026-05-06 18:06 -27.12297 26.48862 35095 ft 495 kts 35°
2026-05-06 18:07 -27.07362 26.54283 35098 ft 495 kts 35°
2026-05-06 18:07 -27.03277 26.58769 35102 ft 494 kts 35°
2026-05-06 18:08 -26.97566 26.65050 34977 ft 494 kts 35°
2026-05-06 18:08 -26.95906 26.66875 34800 ft 494 kts 35°
2026-05-06 18:08 -26.93450 26.69574 34555 ft 494 kts 34°
2026-05-06 18:09 -26.90197 26.73146 34238 ft 494 kts 34°
2026-05-06 18:09 -26.88541 26.74963 33731 ft 496 kts 34°
2026-05-06 18:09 -26.86080 26.77651 32681 ft 503 kts 34°
2026-05-06 18:09 -26.83570 26.80391 31908 ft 503 kts 35°
2026-05-06 18:10 -26.81081 26.83119 31334 ft 497 kts 35°
2026-05-06 18:10 -26.78621 26.85819 30668 ft 494 kts 35°
2026-05-06 18:10 -26.76164 26.88510 29792 ft 495 kts 35°
2026-05-06 18:10 -26.73700 26.91204 29112 ft 492 kts 35°
2026-05-06 18:11 -26.71293 26.93832 28458 ft 488 kts 35°
2026-05-06 18:11 -26.68865 26.96479 27820 ft 483 kts 35°
2026-05-06 18:11 -26.66469 26.99090 27190 ft 479 kts 36°
2026-05-06 18:11 -26.64091 27.01685 26547 ft 475 kts 36°
2026-05-06 18:12 -26.61738 27.04250 25920 ft 471 kts 36°
2026-05-06 18:12 -26.59404 27.06789 25284 ft 467 kts 36°
2026-05-06 18:12 -26.57074 27.09315 24663 ft 463 kts 36°
2026-05-06 18:12 -26.54770 27.11811 24048 ft 459 kts 36°
2026-05-06 18:13 -26.52490 27.14281 23465 ft 455 kts 36°
2026-05-06 18:13 -26.50245 27.16719 23032 ft 448 kts 36°
2026-05-06 18:13 -26.48010 27.19140 22366 ft 447 kts 36°
2026-05-06 18:13 -26.45780 27.21556 21784 ft 445 kts 37°
2026-05-06 18:14 -26.43597 27.23921 21269 ft 441 kts 37°
2026-05-06 18:14 -26.41402 27.26298 20746 ft 438 kts 37°
2026-05-06 18:14 -26.39214 27.28669 20243 ft 435 kts 37°
2026-05-06 18:14 -26.37053 27.31009 19748 ft 432 kts 37°
2026-05-06 18:15 -26.34904 27.33335 19271 ft 429 kts 38°
2026-05-06 18:15 -26.32770 27.35640 18766 ft 426 kts 38°
2026-05-06 18:15 -26.30648 27.37926 18257 ft 423 kts 38°
2026-05-06 18:15 -26.28541 27.40197 17733 ft 420 kts 38°
2026-05-06 18:16 -26.26450 27.42452 17208 ft 416 kts 39°
2026-05-06 18:16 -26.24381 27.44686 16700 ft 412 kts 39°
2026-05-06 18:16 -26.22328 27.46901 16187 ft 408 kts 39°
2026-05-06 18:16 -26.20302 27.49087 15654 ft 403 kts 39°
2026-05-06 18:17 -26.18290 27.51256 15095 ft 400 kts 39°
2026-05-06 18:17 -26.16321 27.53374 14562 ft 397 kts 39°
2026-05-06 18:17 -26.14340 27.55499 14040 ft 393 kts 39°
2026-05-06 18:17 -26.12386 27.57599 13539 ft 388 kts 39°
2026-05-06 18:18 -26.10444 27.59685 13002 ft 385 kts 39°
2026-05-06 18:18 -26.08525 27.61745 12477 ft 381 kts 39°
2026-05-06 18:18 -26.06620 27.63791 11956 ft 378 kts 39°
2026-05-06 18:18 -26.04734 27.65815 11436 ft 375 kts 39°
2026-05-06 18:19 -26.02861 27.67823 10913 ft 371 kts 39°
2026-05-06 18:19 -26.01037 27.69776 10638 ft 362 kts 39°
2026-05-06 18:19 -25.99265 27.71678 10459 ft 349 kts 40°
2026-05-06 18:19 -25.97530 27.73535 10095 ft 344 kts 39°
2026-05-06 18:20 -25.95809 27.75375 9673 ft 342 kts 40°
2026-05-06 18:20 -25.94099 27.77200 9255 ft 339 kts 40°
2026-05-06 18:20 -25.92415 27.78998 9041 ft 330 kts 40°
2026-05-06 18:20 -25.90786 27.80741 8913 ft 319 kts 40°
2026-05-06 18:21 -25.89233 27.82404 8789 ft 310 kts 40°
2026-05-06 18:21 -25.87707 27.84045 8660 ft 300 kts 41°
2026-05-06 18:21 -25.86293 27.85664 8525 ft 283 kts 43°
2026-05-06 18:21 -25.85007 27.87217 8408 ft 266 kts 44°
2026-05-06 18:22 -25.83782 27.88719 8266 ft 258 kts 44°
2026-05-06 18:22 -25.82584 27.90186 7989 ft 253 kts 44°
2026-05-06 18:22 -25.81548 27.91728 7680 ft 248 kts 63°
2026-05-06 18:22 -25.81114 27.93567 7397 ft 242 kts 86°
2026-05-06 18:23 -25.81264 27.95368 7197 ft 227 kts 105°
2026-05-06 18:23 -25.81879 27.96898 6978 ft 211 kts 127°
2026-05-06 18:23 -25.82799 27.98105 6727 ft 199 kts 140°
2026-05-06 18:23 -25.83890 27.98961 6449 ft 182 kts 160°
2026-05-06 18:24 -25.85050 27.99234 6448 ft 164 kts 182°
2026-05-06 18:24 -25.86177 27.99242 6455 ft 161 kts 187°
2026-05-06 18:24 -25.87262 27.99042 6302 ft 157 kts 198°
2026-05-06 18:24 -25.88296 27.98731 5971 ft 153 kts 205°
2026-05-06 18:25 -25.89200 27.98140 5674 ft 149 kts 218°
2026-05-06 18:25 -25.89955 27.97372 5440 ft 147 kts 229°
2026-05-06 18:25 -25.90639 27.96533 5210 ft 146 kts 227°
2026-05-06 18:25 -25.91340 27.95718 5029 ft 145 kts 228°
2026-05-06 18:26 -25.92027 27.94891 4798 ft 146 kts 228°
2026-05-06 18:26 -25.92723 27.94072 4604 ft 146 kts 227°
2026-05-06 18:26 -25.93393 27.93270 4521 ft 128 kts 227°
2026-05-06 18:26 -25.93886 27.92674 4517 ft 84 kts 227°
2026-05-06 18:27 -25.94218 27.92278 4517 ft 58 kts 226°
2026-05-06 18:27 -25.94451 27.91997 4516 ft 43 kts 227°
2026-05-06 18:27 -25.94633 27.91781 4518 ft 31 kts 227°
2026-05-06 18:27 -25.94731 27.91662 4518 ft 15 kts 227°
2026-05-06 18:28 -25.94795 27.91584 4518 ft 9 kts 228°
2026-05-06 18:28 -25.94789 27.91523 4518 ft 9 kts 311°
2026-05-06 18:28 -25.94743 27.91478 4521 ft 8 kts 317°
2026-05-06 18:28 -25.94699 27.91442 4522 ft 8 kts 348°
2026-05-06 18:29 -25.94652 27.91475 4523 ft 9 kts 48°
2026-05-06 18:29 -25.94607 27.91530 4522 ft 10 kts 48°
2026-05-06 18:29 -25.94554 27.91595 4523 ft 12 kts 48°
2026-05-06 18:29 -25.94495 27.91669 4523 ft 14 kts 48°
2026-05-06 18:30 -25.94428 27.91750 4522 ft 15 kts 47°
2026-05-06 18:30 -25.94351 27.91843 4522 ft 17 kts 47°
2026-05-06 18:30 -25.94266 27.91946 4522 ft 19 kts 47°
2026-05-06 18:30 -25.94172 27.92054 4521 ft 20 kts 46°
2026-05-06 18:31 -25.94073 27.92174 4521 ft 22 kts 48°
2026-05-06 18:31 -25.93967 27.92302 4523 ft 23 kts 47°
2026-05-06 18:31 -25.93875 27.92410 4522 ft 15 kts 46°
2026-05-06 18:31 -25.93799 27.92488 4523 ft 14 kts 31°
2026-05-06 18:32 -25.93750 27.92504 4523 ft 5 kts 10°
2026-05-06 18:32 -25.93709 27.92517 4522 ft 7 kts 25°
2026-05-06 18:32 -25.93670 27.92552 4524 ft 8 kts 44°
2026-05-06 18:32 -25.93642 27.92589 4524 ft 5 kts 51°
2026-05-06 18:33 -25.93617 27.92600 4524 ft 3 kts 337°
2026-05-06 18:33 -25.93602 27.92586 4524 ft 3 kts 315°
2026-05-06 18:33 -25.93586 27.92569 4524 ft 2 kts 317°
2026-05-06 18:33 -25.93585 27.92567 4524 ft 0 kts 317°